カタログに戻る

COSMOS 2491 DEB

LostPO
NORAD 44996·DEBRIS·🇷🇺 Russia

打ち上げ Dec 25, 2013 から Plesetsk Cosmodrome

Loading…

次のパス (今後24時間)

TLE

古いSource: Space-Track

元期: Aug 10, 2026, 01:02 UTC

1 44996U 13076R   26222.04324040  .00000106  00000-0  68900-3 0  9993
2 44996  82.4831 135.0940 0016640 338.9114  21.1278 12.43363298299055

AllMySatでCOSMOS 2491 DEBをリアルタイム追跡

Download on the App Store